******** Week 366 almanac for PRN-1 ******** ID: 1 Health: 0 Eccentricity: 0.001696586609 Time of Applicability(s): 405504 Orbital Inclination(rad): 0.9576258564 Rate of Right Ascen(r/s): -8.103194673e-09 SQRT(A) (m 1/2): 5153.566895 Right Ascen at Week(rad): 2.383384825 Argument of Perigee(rad): 0.1596512227 Mean Anom(rad): 2.032618546 Af0(s): 0.0002343927124 Af1(s/s): -7.275958e-12 week: 366 ******** Week 366 almanac for PRN-2 ******** ID: 2 Health: 0 Eccentricity: 0.01682281494 Time of Applicability(s): 405504 Orbital Inclination(rad): 0.9626831993 Rate of Right Ascen(r/s): -8.148910863e-09 SQRT(A) (m 1/2): 5153.714844 Right Ascen at Week(rad): 2.221017677 Argument of Perigee(rad): -0.7822792692 Mean Anom(rad): -2.740574648 Af0(s): 6.330864258e-05 Af1(s/s): 7.275958e-12 week: 366 ******** Week 366 almanac for PRN-3 ******** ID: 3 Health: 0 Eccentricity: 0.00670003891 Time of Applicability(s): 405504 Orbital Inclination(rad): 0.9942017108 Rate of Right Ascen(r/s): -7.383164681e-09 SQRT(A) (m 1/2): 5153.567383 Right Ascen at Week(rad): -2.911539728 Argument of Perigee(rad): 1.209139759 Mean Anom(rad): -0.03217127726 Af0(s): 0.0003956790161 Af1(s/s): -1.455192e-11 week: 366 ******** Week 366 almanac for PRN-4 ******** ID: 4 Health: 0 Eccentricity: 0.003722190857 Time of Applicability(s): 405504 Orbital Inclination(rad): 0.9707425905 Rate of Right Ascen(r/s): -8.068907531e-09 SQRT(A) (m 1/2): 5153.651855 Right Ascen at Week(rad): -1.842074613 Argument of Perigee(rad): -2.870310624 Mean Anom(rad): 2.917436342 Af0(s): 4.220576172e-05 Af1(s/s): 0 week: 366 ******** Week 366 almanac for PRN-5 ******** ID: 5 Health: 0 Eccentricity: 0.00550031662 Time of Applicability(s): 405504 Orbital Inclination(rad): 0.9807014814 Rate of Right Ascen(r/s): -7.486026109e-09 SQRT(A) (m 1/2): 5153.689941 Right Ascen at Week(rad): -2.971837233 Argument of Perigee(rad): 1.421763877 Mean Anom(rad): -2.699170275 Af0(s): -0.0001831428589 Af1(s/s): 0 week: 366 ******** Week 366 almanac for PRN-6 ******** ID: 6 Health: 0 Eccentricity: 0.00378370285 Time of Applicability(s): 405504 Orbital Inclination(rad): 0.9864299409 Rate of Right Ascen(r/s): -7.828897533e-09 SQRT(A) (m 1/2): 5153.618164 Right Ascen at Week(rad): 2.335162925 Argument of Perigee(rad): -0.5342818385 Mean Anom(rad): 1.251679263 Af0(s): -0.0004823515625 Af1(s/s): 3.637979e-12 week: 366 ******** Week 366 almanac for PRN-7 ******** ID: 7 Health: 0 Eccentricity: 0.02075242996 Time of Applicability(s): 405504 Orbital Inclination(rad): 0.9508727456 Rate of Right Ascen(r/s): -7.988904198e-09 SQRT(A) (m 1/2): 5153.553711 Right Ascen at Week(rad): -0.8333212066 Argument of Perigee(rad): -1.977468267 Mean Anom(rad): 0.4189074582 Af0(s): -0.0001371687256 Af1(s/s): -3.637979e-12 week: 366 ******** Week 366 almanac for PRN-8 ******** ID: 8 Health: 0 Eccentricity: 0.0115904808 Time of Applicability(s): 405504 Orbital Inclination(rad): 0.9428373228 Rate of Right Ascen(r/s): -8.526069431e-09 SQRT(A) (m 1/2): 5153.646973 Right Ascen at Week(rad): 1.212489724 Argument of Perigee(rad): 0.5378853451 Mean Anom(rad): -3.059658756 Af0(s): 0.0003640246948 Af1(s/s): -7.275958e-12 week: 366 ******** Week 366 almanac for PRN-9 ******** ID: 9 Health: 0 Eccentricity: 0.003354549408 Time of Applicability(s): 405504 Orbital Inclination(rad): 0.9649841704 Rate of Right Ascen(r/s): -8.114623721e-09 SQRT(A) (m 1/2): 5153.689453 Right Ascen at Week(rad): -1.906641123 Argument of Perigee(rad): 2.050784758 Mean Anom(rad): -2.458716165 Af0(s): 0.0005999247559 Af1(s/s): -3.637979e-12 week: 366 ******** Week 366 almanac for PRN-10 ******** ID: 10 Health: 0 Eccentricity: 0.01092672348 Time of Applicability(s): 405504 Orbital Inclination(rad): 0.993734326 Rate of Right Ascen(r/s): -7.360306586e-09 SQRT(A) (m 1/2): 5153.61377 Right Ascen at Week(rad): -2.914046678 Argument of Perigee(rad): -2.257880779 Mean Anom(rad): -1.024702163 Af0(s): -0.0004657707275 Af1(s/s): 0 week: 366 ******** Week 366 almanac for PRN-11 ******** ID: 11 Health: 0 Eccentricity: 0.002233028412 Time of Applicability(s): 405504 Orbital Inclination(rad): 0.9633183632 Rate of Right Ascen(r/s): -8.068907531e-09 SQRT(A) (m 1/2): 5153.546875 Right Ascen at Week(rad): 2.352963994 Argument of Perigee(rad): -2.328716161 Mean Anom(rad): 2.416958631 Af0(s): -0.0002931793091 Af1(s/s): 1.455192e-11 week: 366 ******** Week 366 almanac for PRN-12 ******** ID: 12 Health: 0 Eccentricity: 0.008900642395 Time of Applicability(s): 405504 Orbital Inclination(rad): 0.9594834112 Rate of Right Ascen(r/s): -7.760323248e-09 SQRT(A) (m 1/2): 5153.708496 Right Ascen at Week(rad): 0.2844036335 Argument of Perigee(rad): 1.57424741 Mean Anom(rad): -0.2874116739 Af0(s): -0.0004808442139 Af1(s/s): 0 week: 366 ******** Week 366 almanac for PRN-13 ******** ID: 13 Health: 0 Eccentricity: 0.01013278961 Time of Applicability(s): 405504 Orbital Inclination(rad): 0.9762313655 Rate of Right Ascen(r/s): -8.057478483e-09 SQRT(A) (m 1/2): 5153.609863 Right Ascen at Week(rad): -1.730905572 Argument of Perigee(rad): 0.993913191 Mean Anom(rad): 2.998290162 Af0(s): 0.0005366161133 Af1(s/s): 0 week: 366 ******** Week 366 almanac for PRN-14 ******** ID: 14 Health: 0 Eccentricity: 0.006970882416 Time of Applicability(s): 405504 Orbital Inclination(rad): 0.9428193465 Rate of Right Ascen(r/s): -7.897471818e-09 SQRT(A) (m 1/2): 5153.61377 Right Ascen at Week(rad): 0.2290840768 Argument of Perigee(rad): -2.727882231 Mean Anom(rad): -0.4182045085 Af0(s): 0.0005878659668 Af1(s/s): 0 week: 366 ******** Week 366 almanac for PRN-15 ******** ID: 15 Health: 0 Eccentricity: 0.01666879654 Time of Applicability(s): 405504 Orbital Inclination(rad): 0.9430470468 Rate of Right Ascen(r/s): -8.320346576e-09 SQRT(A) (m 1/2): 5153.649902 Right Ascen at Week(rad): -2.051800047 Argument of Perigee(rad): 1.509898114 Mean Anom(rad): 2.229333231 Af0(s): 0.0003188042358 Af1(s/s): 3.637979e-12 week: 366 ******** Week 366 almanac for PRN-16 ******** ID: 16 Health: 0 Eccentricity: 0.01499986649 Time of Applicability(s): 405504 Orbital Inclination(rad): 0.9585845943 Rate of Right Ascen(r/s): -7.771752296e-09 SQRT(A) (m 1/2): 5153.628418 Right Ascen at Week(rad): 0.3012953985 Argument of Perigee(rad): 0.9332138408 Mean Anom(rad): -2.01271125 Af0(s): 0.0001944479736 Af1(s/s): 7.275958e-12 week: 366 ******** Week 366 almanac for PRN-17 ******** ID: 17 Health: 0 Eccentricity: 0.01259469986 Time of Applicability(s): 405504 Orbital Inclination(rad): 0.9584168152 Rate of Right Ascen(r/s): -8.400349908e-09 SQRT(A) (m 1/2): 5153.561035 Right Ascen at Week(rad): 1.317928058 Argument of Perigee(rad): -1.114731031 Mean Anom(rad): -3.094865413 Af0(s): -9.044091797e-05 Af1(s/s): -7.275958e-12 week: 366 ******** Week 366 almanac for PRN-18 ******** ID: 18 Health: 0 Eccentricity: 0.00586605072 Time of Applicability(s): 405504 Orbital Inclination(rad): 0.9713837465 Rate of Right Ascen(r/s): -7.977475151e-09 SQRT(A) (m 1/2): 5153.583496 Right Ascen at Week(rad): 2.329491017 Argument of Perigee(rad): -2.870739809 Mean Anom(rad): 1.203828874 Af0(s): -0.0002961940063 Af1(s/s): 1.091394e-11 week: 366 ******** Week 366 almanac for PRN-19 ******** ID: 19 Health: 0 Eccentricity: 0.01134777069 Time of Applicability(s): 405504 Orbital Inclination(rad): 0.9575659352 Rate of Right Ascen(r/s): -8.411778956e-09 SQRT(A) (m 1/2): 5153.67334 Right Ascen at Week(rad): 1.361804178 Argument of Perigee(rad): 2.953405869 Mean Anom(rad): -1.333293707 Af0(s): 0.0005509359253 Af1(s/s): 0 week: 366 ******** Week 366 almanac for PRN-20 ******** ID: 20 Health: 0 Eccentricity: 0.002202033997 Time of Applicability(s): 405504 Orbital Inclination(rad): 0.960376236 Rate of Right Ascen(r/s): -8.194627053e-09 SQRT(A) (m 1/2): 5153.697266 Right Ascen at Week(rad): -1.901255337 Argument of Perigee(rad): -1.913414082 Mean Anom(rad): -0.3766076384 Af0(s): 8.74262207e-05 Af1(s/s): 1.818989e-11 week: 366 ******** Week 366 almanac for PRN-21 ******** ID: 21 Health: 0 Eccentricity: 0.0008392333984 Time of Applicability(s): 405504 Orbital Inclination(rad): 0.9635999925 Rate of Right Ascen(r/s): -7.668890868e-09 SQRT(A) (m 1/2): 5153.746094 Right Ascen at Week(rad): -2.906646045 Argument of Perigee(rad): -0.1807273547 Mean Anom(rad): -0.7186793621 Af0(s): 0.0003278483276 Af1(s/s): 0 week: 366 ******** Week 366 almanac for PRN-22 ******** ID: 22 Health: 0 Eccentricity: 0.01200437546 Time of Applicability(s): 405504 Orbital Inclination(rad): 0.9580393121 Rate of Right Ascen(r/s): -7.771752296e-09 SQRT(A) (m 1/2): 5153.581055 Right Ascen at Week(rad): 0.30465585 Argument of Perigee(rad): -0.9932443214 Mean Anom(rad): -2.44716075 Af0(s): -1.431981201e-05 Af1(s/s): 7.275958e-12 week: 366 ******** Week 366 almanac for PRN-23 ******** ID: 23 Health: 0 Eccentricity: 0.006111145019 Time of Applicability(s): 405504 Orbital Inclination(rad): 0.9887009515 Rate of Right Ascen(r/s): -7.428880871e-09 SQRT(A) (m 1/2): 5153.672852 Right Ascen at Week(rad): -2.946328435 Argument of Perigee(rad): -2.741674201 Mean Anom(rad): 0.04175154156 Af0(s): 0.0005034544434 Af1(s/s): 3.637979e-12 week: 366 ******** Week 366 almanac for PRN-24 ******** ID: 24 Health: 0 Eccentricity: 0.01799869537 Time of Applicability(s): 405504 Orbital Inclination(rad): 0.9348318606 Rate of Right Ascen(r/s): -8.308917528e-09 SQRT(A) (m 1/2): 5153.580566 Right Ascen at Week(rad): -0.9426450513 Argument of Perigee(rad): 1.141767068 Mean Anom(rad): 1.400532325 Af0(s): -2.637860107e-05 Af1(s/s): 1.818989e-11 week: 366 ******** Week 366 almanac for PRN-25 ******** ID: 25 Health: 0 Eccentricity: 0.01287889481 Time of Applicability(s): 405504 Orbital Inclination(rad): 0.9478587131 Rate of Right Ascen(r/s): -7.851755628e-09 SQRT(A) (m 1/2): 5153.663574 Right Ascen at Week(rad): 0.1901267321 Argument of Perigee(rad): 1.160604397 Mean Anom(rad): -0.3957367084 Af0(s): 0.0003391534424 Af1(s/s): -3.637979e-12 week: 366 ******** Week 366 almanac for PRN-26 ******** ID: 26 Health: 0 Eccentricity: 0.01102590561 Time of Applicability(s): 405504 Orbital Inclination(rad): 0.92861804 Rate of Right Ascen(r/s): -8.000333246e-09 SQRT(A) (m 1/2): 5153.694336 Right Ascen at Week(rad): 0.1147991375 Argument of Perigee(rad): 0.7130636292 Mean Anom(rad): -1.220003833 Af0(s): -0.0002803668457 Af1(s/s): -3.637979e-12 week: 366 ******** Week 366 almanac for PRN-27 ******** ID: 27 Health: 0 Eccentricity: 0.0143699646 Time of Applicability(s): 405504 Orbital Inclination(rad): 0.9519153732 Rate of Right Ascen(r/s): -8.446066098e-09 SQRT(A) (m 1/2): 5153.611816 Right Ascen at Week(rad): 1.244919786 Argument of Perigee(rad): 0.8943958128 Mean Anom(rad): -2.949490024 Af0(s): -8.667254639e-05 Af1(s/s): -1.818989e-11 week: 366 ******** Week 366 almanac for PRN-28 ******** ID: 28 Health: 0 Eccentricity: 0.0004043579102 Time of Applicability(s): 405504 Orbital Inclination(rad): 0.9617843824 Rate of Right Ascen(r/s): -7.920329913e-09 SQRT(A) (m 1/2): 5153.51416 Right Ascen at Week(rad): -0.8585689724 Argument of Perigee(rad): -0.3810174586 Mean Anom(rad): 1.122376592 Af0(s): -0.0004378847778 Af1(s/s): 1.091394e-11 week: 366 ******** Week 366 almanac for PRN-29 ******** ID: 29 Health: 0 Eccentricity: 0.003510951996 Time of Applicability(s): 405504 Orbital Inclination(rad): 0.961071321 Rate of Right Ascen(r/s): -8.377491813e-09 SQRT(A) (m 1/2): 5153.678711 Right Ascen at Week(rad): 1.33478799 Argument of Perigee(rad): 2.760713764 Mean Anom(rad): -3.117933548 Af0(s): -0.0002683080566 Af1(s/s): 7.275958e-12 week: 366 ******** Week 366 almanac for PRN-30 ******** ID: 30 Health: 0 Eccentricity: 0.008206367493 Time of Applicability(s): 405504 Orbital Inclination(rad): 0.9361441332 Rate of Right Ascen(r/s): -8.171768958e-09 SQRT(A) (m 1/2): 5153.674805 Right Ascen at Week(rad): -0.8429733762 Argument of Perigee(rad): -2.288930033 Mean Anom(rad): 0.1936710667 Af0(s): 0.000149981189 Af1(s/s): 1.455192e-11 week: 366 ******** Week 366 almanac for PRN-31 ******** ID: 31 Health: 0 Eccentricity: 0.01081466675 Time of Applicability(s): 405504 Orbital Inclination(rad): 0.9546357922 Rate of Right Ascen(r/s): -8.000333246e-09 SQRT(A) (m 1/2): 5153.533691 Right Ascen at Week(rad): -0.8089063444 Argument of Perigee(rad): 0.9445505431 Mean Anom(rad): -0.6613928945 Af0(s): -0.0001228489136 Af1(s/s): 3.637979e-12 week: 366 ******** Week 366 almanac for PRN-32 ******** ID: 32 Health: 0 Eccentricity: 0.009388446808 Time of Applicability(s): 405504 Orbital Inclination(rad): 0.967998203 Rate of Right Ascen(r/s): -8.068907531e-09 SQRT(A) (m 1/2): 5153.687988 Right Ascen at Week(rad): -1.889485705 Argument of Perigee(rad): -1.981288613 Mean Anom(rad): -2.401744658 Af0(s): 4.522045898e-06 Af1(s/s): 1.818989e-11 week: 366